Погода в Усть-Коже

Россия / Архангельская область     63°37′50″N   38°43′32″E
темп.,
°C
ветер,
м/с
пор.,
м/с
влажн.,
%
обл.,
%
осадки,
мм/ч
давл.,
гПа
погр.,
м
25 июля, вс
вс2500:00+10з117091 0.0 101119
03:00+7зсз228136 0.0 101119
06:00+12зюз2965100 0.0 1011310
09:00+14з4106092 0.0 1012697
12:00+15з586362 0.1 1013889
15:00+18зсз5756100 0.1 10131163
18:00+15зсз2673100 0.0 1014250
21:00+14з117967 0.0 101430
26 июля, пн
пн2600:00+12з128321 0.0 101548
03:00+11зюз278985 0.0 1015139
06:00+12з31192100 0.3 1015410
09:00+12зсз399567 0.8 1015420
12:00+17зсз585744 0.0 10161173
15:00+18сз594723 0.0 10171785
18:00+17с47445 0.0 10181463
21:00+10ссв26610 0.0 1020154
27 июля, вт
вт2700:00+7сз22770 0.0 102113
03:00+6зсз22805 0.0 102233
06:00+10сз25645 0.0 1022170
09:00+16сз24445 0.0 1021974
12:00+19зсз34355 0.0 10201598
15:00+20зсз44355 0.0 10191418
18:00+18сз344033 0.0 1018823
21:00+12сз22615 0.0 101714
28 июля, ср
ср2800:00+9ссв00734 0.0 101710
03:00+8ю117456 0.0 101612
06:00+12ююв245898 0.0 1013131
09:00+18юз375779 0.0 1010638
12:00+23зсз59516 0.0 10081108
15:00+24зсз58450 0.0 10071034
18:00+23ссз35470 0.0 10061003
21:00+15св25720 0.0 100694
29 июля, чт
чт2900:00+11в118540 0.0 100615
03:00+10вюв229095 0.0 100541
06:00+13ююв3682100 0.0 1003198
09:00+18ююв356810 0.3 1001533
12:00+23ююв3458100 0.1 999958
15:00+27юв1442100 0.3 9971577
18:00+19юз2983100 4.9 996412
21:00+17св118798 5.1 99512